Time,TemperatureF,DewpointF,PressureIn,WindDirection,WindDirectionDegrees,WindSpeedMPH,WindSpeedGustMPH,Humidity,HourlyPrecipIn,Conditions,Clouds,dailyrainin,SoftwareType,DateUTC
2013-02-20 00:02:00,-999.0,-99.9,-100.00,WNW,303,26.0,33.0,-999,0.00,,,0.06,,2013-02-20 05:02:00,
2013-02-20 00:12:00,-999.0,-99.9,-100.00,WNW,303,26.0,33.0,-999,0.00,,,0.06,,2013-02-20 05:12:00,
2013-02-20 00:43:00,-999.0,-99.9,-100.00,NW,317,19.0,29.0,-999,0.00,,,0.06,,2013-02-20 05:43:00,
2013-02-20 00:52:00,-999.0,-99.9,-100.00,NW,317,19.0,29.0,-999,0.00,,,0.06,,2013-02-20 05:52:00,
2013-02-20 01:02:00,-999.0,-99.9,-100.00,NW,317,19.0,29.0,-999,0.00,,,0.06,,2013-02-20 06:02:00,
2013-02-20 01:12:00,-999.0,-99.9,-100.00,NW,317,19.0,29.0,-999,0.00,,,0.06,,2013-02-20 06:12:00,
2013-02-20 01:42:00,-999.0,-99.9,-100.00,NW,317,16.0,25.0,-999,0.00,,,0.06,,2013-02-20 06:42:00,
2013-02-20 01:52:00,-999.0,-99.9,-100.00,NW,317,16.0,25.0,-999,0.00,,,0.06,,2013-02-20 06:52:00,
2013-02-20 02:02:00,-999.0,-99.9,-100.00,NW,317,16.0,25.0,-999,0.00,,,0.06,,2013-02-20 07:02:00,
2013-02-20 02:11:00,-999.0,-99.9,-100.00,NW,317,16.0,25.0,-999,0.00,,,0.06,,2013-02-20 07:11:00,
2013-02-20 02:42:00,-999.0,-99.9,-100.00,NW,323,22.0,31.0,-999,0.00,,,0.06,,2013-02-20 07:42:00,
2013-02-20 02:52:00,-999.0,-99.9,-100.00,NW,323,22.0,31.0,-999,0.00,,,0.06,,2013-02-20 07:52:00,
2013-02-20 03:05:00,-999.0,-99.9,-100.00,NW,323,22.0,31.0,-999,0.00,,,0.06,,2013-02-20 08:05:00,
2013-02-20 03:11:00,-999.0,-99.9,-100.00,NW,323,22.0,31.0,-999,0.00,,,0.06,,2013-02-20 08:11:00,
2013-02-20 03:42:00,-999.0,-99.9,-100.00,NW,323,20.0,31.0,-999,0.00,,,0.06,,2013-02-20 08:42:00,
2013-02-20 03:52:00,-999.0,-99.9,-100.00,NW,323,20.0,31.0,-999,0.00,,,0.06,,2013-02-20 08:52:00,
2013-02-20 04:02:00,-999.0,-99.9,-100.00,NW,323,20.0,31.0,-999,0.00,,,0.06,,2013-02-20 09:02:00,
2013-02-20 04:11:00,-999.0,-99.9,-100.00,NW,323,20.0,31.0,-999,0.00,,,0.06,,2013-02-20 09:11:00,
2013-02-20 04:42:00,-999.0,-99.9,-100.00,NNW,327,24.0,34.0,-999,0.00,,,0.06,,2013-02-20 09:42:00,
2013-02-20 04:52:00,-999.0,-99.9,-100.00,NNW,327,24.0,34.0,-999,0.00,,,0.06,,2013-02-20 09:52:00,
2013-02-20 05:01:00,-999.0,-99.9,-100.00,NNW,327,24.0,34.0,-999,0.00,,,0.06,,2013-02-20 10:01:00,
2013-02-20 05:12:00,-999.0,-99.9,-100.00,NNW,327,24.0,34.0,-999,0.00,,,0.06,,2013-02-20 10:12:00,
2013-02-20 05:42:00,-999.0,-99.9,-100.00,NW,326,24.0,34.0,-999,0.00,,,0.06,,2013-02-20 10:42:00,
2013-02-20 05:52:00,-999.0,-99.9,-100.00,NW,326,24.0,34.0,-999,0.00,,,0.06,,2013-02-20 10:52:00,
2013-02-20 06:02:00,-999.0,-99.9,-100.00,NW,326,24.0,34.0,-999,0.00,,,0.06,,2013-02-20 11:02:00,
2013-02-20 06:11:00,-999.0,-99.9,-100.00,NW,326,24.0,34.0,-999,0.00,,,0.06,,2013-02-20 11:11:00,
2013-02-20 06:42:00,-999.0,-99.9,-100.00,NW,323,24.0,37.0,-999,0.00,,,0.06,,2013-02-20 11:42:00,
2013-02-20 06:52:00,-999.0,-99.9,-100.00,NW,323,24.0,37.0,-999,0.00,,,0.06,,2013-02-20 11:52:00,
2013-02-20 07:02:00,-999.0,-99.9,-100.00,NW,323,24.0,37.0,-999,0.00,,,0.06,,2013-02-20 12:02:00,
2013-02-20 07:12:00,-999.0,-99.9,-100.00,NW,323,24.0,37.0,-999,0.00,,,0.06,,2013-02-20 12:12:00,
2013-02-20 07:42:00,-999.0,-99.9,-100.00,NW,325,28.0,38.0,-999,0.00,,,0.06,,2013-02-20 12:42:00,
2013-02-20 07:53:00,-999.0,-99.9,-100.00,NW,325,28.0,38.0,-999,0.00,,,0.06,,2013-02-20 12:53:00,
2013-02-20 08:02:00,-999.0,-99.9,-100.00,NW,325,28.0,38.0,-999,0.00,,,0.06,,2013-02-20 13:02:00,
2013-02-20 08:12:00,-999.0,-99.9,-100.00,NW,325,28.0,38.0,-999,0.00,,,0.06,,2013-02-20 13:12:00,
2013-02-20 09:42:00,-999.0,-99.9,-100.00,NW,326,24.0,34.0,-999,0.00,,,0.06,,2013-02-20 14:42:00,
2013-02-20 09:52:00,-999.0,-99.9,-100.00,NW,326,24.0,34.0,-999,0.00,,,0.06,,2013-02-20 14:52:00,
2013-02-20 10:02:00,-999.0,-99.9,-100.00,NW,326,24.0,34.0,-999,0.00,,,0.06,,2013-02-20 15:02:00,
2013-02-20 10:12:00,-999.0,-99.9,-100.00,NW,326,24.0,34.0,-999,0.00,,,0.06,,2013-02-20 15:12:00,
2013-02-20 10:42:00,-999.0,-99.9,-100.00,NW,317,21.0,36.0,-999,0.00,,,0.06,,2013-02-20 15:42:00,
2013-02-20 10:52:00,-999.0,-99.9,-100.00,NW,317,21.0,36.0,-999,0.00,,,0.06,,2013-02-20 15:52:00,
2013-02-20 11:01:00,-999.0,-99.9,-100.00,NW,317,21.0,36.0,-999,0.00,,,0.06,,2013-02-20 16:01:00,
2013-02-20 11:12:00,-999.0,-99.9,-100.00,NW,317,21.0,36.0,-999,0.00,,,0.06,,2013-02-20 16:12:00,
2013-02-20 11:42:00,-999.0,-99.9,-100.00,NW,311,19.0,37.0,-999,0.00,,,0.06,,2013-02-20 16:42:00,
2013-02-20 11:52:00,-999.0,-99.9,-100.00,NW,311,19.0,37.0,-999,0.00,,,0.06,,2013-02-20 16:52:00,
2013-02-20 12:02:00,-999.0,-99.9,-100.00,NW,311,19.0,37.0,-999,0.00,,,0.06,,2013-02-20 17:02:00,
2013-02-20 12:12:00,-999.0,-99.9,-100.00,NW,311,19.0,37.0,-999,0.00,,,0.06,,2013-02-20 17:12:00,
2013-02-20 12:52:00,-999.0,-99.9,-100.00,NW,317,24.0,38.0,-999,0.00,,,0.06,,2013-02-20 17:52:00,
2013-02-20 13:02:00,-999.0,-99.9,-100.00,NW,317,24.0,38.0,-999,0.00,,,0.06,,2013-02-20 18:02:00,
2013-02-20 13:11:00,-999.0,-99.9,-100.00,NW,317,24.0,38.0,-999,0.00,,,0.06,,2013-02-20 18:11:00,
2013-02-20 13:42:00,-999.0,-99.9,-100.00,NW,314,19.0,39.0,-999,0.00,,,0.05,,2013-02-20 18:42:00,
2013-02-20 13:52:00,-999.0,-99.9,-100.00,NW,314,19.0,39.0,-999,0.00,,,0.05,,2013-02-20 18:52:00,
2013-02-20 14:02:00,-999.0,-99.9,-100.00,NW,314,19.0,39.0,-999,0.00,,,0.05,,2013-02-20 19:02:00,
2013-02-20 14:12:00,-999.0,-99.9,-100.00,NW,314,19.0,39.0,-999,0.00,,,0.05,,2013-02-20 19:12:00,
2013-02-20 15:01:00,-999.0,-99.9,-100.00,NW,314,23.0,38.0,-999,0.00,,,0.05,,2013-02-20 20:01:00,
2013-02-20 15:11:00,-999.0,-99.9,-100.00,NW,314,23.0,38.0,-999,0.00,,,0.05,,2013-02-20 20:11:00,
2013-02-20 15:41:00,-999.0,-99.9,-100.00,NW,313,21.0,35.0,-999,0.00,,,0.05,,2013-02-20 20:41:00,
2013-02-20 15:52:00,-999.0,-99.9,-100.00,NW,313,21.0,35.0,-999,0.00,,,0.05,,2013-02-20 20:52:00,
2013-02-20 16:02:00,-999.0,-99.9,-100.00,NW,313,21.0,35.0,-999,0.00,,,0.05,,2013-02-20 21:02:00,
2013-02-20 16:11:00,-999.0,-99.9,-100.00,NW,313,21.0,35.0,-999,0.00,,,0.05,,2013-02-20 21:11:00,
2013-02-20 17:11:00,-999.0,-99.9,-100.00,NW,316,22.0,39.0,-999,0.00,,,0.03,,2013-02-20 22:11:00,
2013-02-20 19:03:00,-999.0,-99.9,-100.00,NW,324,25.0,36.0,-999,0.00,,,0.01,,2013-02-21 00:03:00,
2013-02-20 19:11:00,-999.0,-99.9,-100.00,NW,324,25.0,36.0,-999,0.00,,,0.01,,2013-02-21 00:11:00,
2013-02-20 19:53:00,-999.0,-99.9,-100.00,NW,323,27.0,38.0,-999,0.00,,,0.00,,2013-02-21 00:53:00,
2013-02-20 20:01:00,-999.0,-99.9,-100.00,NW,323,27.0,38.0,-999,0.00,,,0.00,,2013-02-21 01:01:00,
2013-02-20 20:12:00,-999.0,-99.9,-100.00,NW,323,27.0,38.0,-999,0.00,,,0.00,,2013-02-21 01:12:00,
2013-02-20 20:42:00,-999.0,-99.9,-100.00,NW,325,29.0,39.0,-999,0.00,,,0.00,,2013-02-21 01:42:00,
2013-02-20 20:52:00,-999.0,-99.9,-100.00,NW,325,29.0,39.0,-999,0.00,,,0.00,,2013-02-21 01:52:00,
2013-02-20 21:02:00,-999.0,-99.9,-100.00,NW,325,29.0,39.0,-999,0.00,,,0.00,,2013-02-21 02:02:00,
2013-02-20 21:11:00,-999.0,-99.9,-100.00,NW,325,29.0,39.0,-999,0.00,,,0.00,,2013-02-21 02:11:00,
2013-02-20 22:02:00,-999.0,-99.9,-100.00,NW,322,27.0,37.0,-999,0.00,,,0.00,,2013-02-21 03:02:00,
2013-02-20 22:12:00,-999.0,-99.9,-100.00,NW,322,27.0,37.0,-999,0.00,,,0.00,,2013-02-21 03:12:00,
2013-02-20 22:42:00,-999.0,-99.9,-100.00,NW,322,24.0,33.0,-999,0.00,,,0.00,,2013-02-21 03:42:00,
2013-02-20 22:52:00,-999.0,-99.9,-100.00,NW,322,24.0,33.0,-999,0.00,,,0.00,,2013-02-21 03:52:00,
2013-02-20 23:01:00,-999.0,-99.9,-100.00,NW,322,24.0,33.0,-999,0.00,,,0.00,,2013-02-21 04:01:00,
2013-02-20 23:11:00,-999.0,-99.9,-100.00,NW,322,24.0,33.0,-999,0.00,,,0.00,,2013-02-21 04:11:00,
2013-02-20 23:42:00,-999.0,-99.9,-100.00,NW,318,20.0,34.0,-999,0.00,,,0.00,,2013-02-21 04:42:00,
2013-02-20 23:52:00,-999.0,-99.9,-100.00,NW,318,20.0,34.0,-999,0.00,,,0.00,,2013-02-21 04:52:00,